Home   Weather   Canvey Island   Past weeks

Flag for United Kingdom Past Weather in Canvey Island, England, United Kingdom — Yesterday and Last 2 Weeks

Now
55 °F

Clear.


Feels Like: 53 °F
Forecast: 58 / 73 °F
Wind: 9 mph from West

Location: Southend Airport-On-Sea

Current Time: Aug 20, 2017 at 3:38:14 am

Latest Report: Aug 20, 2017 at 2:50 am


Visibility: 10 mi

Pressure: 30.15 "Hg

Humidity: 67%

Dew Point: 45 °F

Location of Canvey IslandLocation

Past Weather in Canvey Island — Graph

°F

Canvey Island Temperature Yesterday

Maximum temperature yesterday: 68 °F (at 12:50 pm)
Minimum temperature yesterday: 55 °F (at 4:50 am)
Average temperature yesterday: 62 °F

High & Low Weather Summary for the Past Weeks

 TemperatureHumidityPressure
High75 °F (Aug 17, 2:50 pm)94% (Aug 8, 6:50 am)30.21 "Hg (Aug 8, 6:50 am)
Low50 °F (Aug 6, 5:20 am)33% (Aug 6, 4:50 pm)29.77 "Hg (Aug 8, 1:50 pm)
Average63 °F66%30.01 "Hg
* Reported Aug 5 1:20 am — Aug 20 1:50 am, Canvey Island. Weather by CustomWeather, © 2017

Note: Actual official high and low records may vary slightly from our data, if they occured in-between our weather recording intervals... More about our weather records

Advertising

Canvey Island Weather History for the Previous 24 Hours

Scroll right to see more
 ConditionsComfort  
Time TempWeatherWind HumidityBarometerVisibility
1:50 am
Sun, Aug 20
57 °FClear.9 mph63%30.15 "Hg10 mi
12:20 am57 °FClear.9 mph63%30.12 "Hg10 mi
11:50 pm
Sat, Aug 19
59 °FClear.10 mph59%30.12 "Hg10 mi
11:20 pm59 °FClear.10 mph59%30.12 "Hg10 mi
10:50 pm61 °FClear.13 mph55%30.12 "Hg10 mi
10:20 pm61 °FClear.13 mph55%30.12 "Hg10 mi
9:50 pm63 °FClear.12 mph49%30.12 "Hg10 mi
9:20 pm63 °FClear.8 mph52%30.09 "Hg10 mi
8:50 pm63 °FClear.13 mph49%30.09 "Hg10 mi
8:20 pm64 °FClear.15 mph46%30.09 "Hg10 mi
7:50 pm64 °FPassing clouds.14 mph49%30.07 "HgN/A
7:20 pm66 °FSunny.14 mph46%30.07 "Hg10 mi
6:50 pm66 °FSunny.13 mph46%30.07 "Hg10 mi
6:20 pm66 °FSunny.16 mph40%30.04 "Hg10 mi
5:50 pm66 °FSunny.17 mph40%30.04 "Hg10 mi
5:20 pm68 °FSunny.17 mph40%30.04 "Hg10 mi
4:50 pm68 °FSunny.16 mph40%30.04 "Hg10 mi
4:20 pm68 °FSunny.21 mph38%30.04 "Hg10 mi
3:50 pm66 °FSunny.17 mph46%30.04 "Hg10 mi
3:20 pm66 °FSunny.16 mph49%30.04 "Hg10 mi
2:50 pm66 °FPassing clouds.16 mph43%30.04 "HgN/A
2:20 pm66 °FPassing clouds.17 mph46%30.04 "HgN/A
1:50 pm66 °FPassing clouds.20 mph43%30.04 "HgN/A
1:20 pm66 °FPassing clouds.17 mph46%30.04 "HgN/A
12:50 pm68 °FPassing clouds.17 mph46%30.01 "HgN/A
12:20 pm66 °FPassing clouds.17 mph49%30.01 "HgN/A
11:50 am64 °FPassing clouds.17 mph56%30.01 "HgN/A
11:20 am63 °FScattered clouds.16 mph56%30.01 "HgN/A
10:50 am63 °FPassing clouds.14 mph56%30.01 "HgN/A
10:20 am63 °FPassing clouds.14 mph56%30.01 "HgN/A
9:50 am61 °FPassing clouds.14 mph59%30.01 "HgN/A
9:20 am61 °FPassing clouds.15 mph68%30.01 "HgN/A
8:50 am59 °FPassing clouds.16 mph72%30.01 "HgN/A
7:50 am57 °FPassing clouds.13 mph77%29.98 "HgN/A
7:20 am57 °FPassing clouds.13 mph77%29.98 "HgN/A
6:50 am57 °FPassing clouds.13 mph82%29.95 "HgN/A
6:20 am55 °FPassing clouds.12 mph82%29.95 "HgN/A
5:50 am55 °FSunny.10 mph82%29.92 "Hg10 mi
4:50 am55 °FClear.8 mph77%29.92 "Hg10 mi
3:50 am57 °FPassing clouds.14 mph72%29.89 "HgN/A
Weather by CustomWeather, © 2017

See weather overviewHow to use our weather pages